www.pogodaiklimat.ru

Погода и климат >> Архив погоды >> Перу >> Trujillo


ПОГОДА в Trujillo

  • Прогноз погоды в Trujillo
  • Монитор погоды в Trujillo
  • Климат города

АРХИВ ПОГОДЫ в Trujillo

Время (UTC), дата Ветер
(напр.,м/с)
 
Видим.   Явления Облачность Т
(С)
Тd
(С)
f
(%)
Тe
(С)
Тes
(С)
Комфортность P
(гПа)
Po
(гПа)
Тmin
(С)
Tmax
(С)
R
(мм)
R24
(мм)
S
(см)
18 17.09 Ю 7 10 км 10/10 450 м
[St]
+18.0 +14.9 82 +17 +17 1013.5 1010.7
21 17.09 ЮВ 6 9000 м дымка 9/9 450 м
[St]
+17.9 +14.8 82 +17 +18 1011.6 1008.8
00 18.09 ЮВ 5 8000 м дымка 8/8 600 м
[St]
+16.7 +14.4 86 +16 +16 1012.7 1009.9 +18.7
06 18.09 Ю 4 6000 м дымка 10/10 270 м
[St]
+16.3 +14.8 91 +16 +16 1013.3 1010.5
09 18.09 ЮВ 4 6000 м дымка 10/10 210 м
[St]
+16.0 +14.7 92 +15 +15 1012.2 1009.6
12 18.09 ЮВ 3 5000 м дымка 10/10 300 м
[St]
+15.9 +14.9 94 +15 +15 1013.4 1010.6 +15.8
15 18.09 Ю 3 6000 м дымка 10/10 270 м
[St]
+16.2 +15.1 93 +16 +16 1014.4 1011.6
18 18.09 Ю 6 6000 м дымка 10/10 300 м
[St]
+16.7 +14.7 88 +16 +16 1012.9 1010.1
21 18.09 ЮВ 7 10 км 10/10 450 м
[St]
+16.9 +14.6 86 +16 +16 1010.9 1008.1
00 19.09 ЮВ 4 10 км 10/10 540 м
[St]
+16.6 +14.6 88 +16 +16 1011.7 1008.9 +18.1
03 19.09 ЮВ 4 7000 м дымка 10/10 540 м
[St]
+16.2 +14.7 91 +15 +15 1013.1 1010.3
06 19.09 ЮВ 3 8000 м дымка 10/10 240 м
[St]
+16.0 +14.4 90 +16 +16 1012.6 1009.8
09 19.09 ЮВ 3 7000 м дымка 10/10 360 м
[St]
+16.0 +14.6 91 +15 +15 1011.6 1008.9
12 19.09 ЮВ 4 6000 м дымка 10/10 360 м
[St]
+16.0 +14.6 91 +15 +15 1013.0 1010.2 +15.9
15 19.09 ЮВ 4 8000 м дымка 10/10 360 м
[St]
+17.2 +14.7 85 +17 +17 1014.2 1011.4
18 19.09 Ю 5 10 км 10/10 120 м
[St]
+17.6 +14.9 84 +17 +17 1012.0 1009.2
21 19.09 Ю 6 10 км 9/9 540 м
[St]
+17.2 +14.7 85 +16 +17 1010.4 1007.6
00 20.09 ЮВ 4 10 км 10/10 540 м
[St]
+16.5 +14.5 88 +16 +16 1011.5 1008.7 +18.7
03 20.09 ЮВ 4 8000 м дымка 10/3 600 м
[St Ac trans]
+16.3 +14.7 90 +16 +16 1012.8 1010.0
06 20.09 ЮВ 2 7000 м дымка 10/10 600 м
[St]
+16.0 +14.4 90 +16 +16 1012.2 1009.4
09 20.09 ЮВ 3 7000 м дымка 10/10 360 м
[St]
+15.8 +14.4 91 +15 +15 1011.7 1008.9
12 20.09 ЮВ 3 6000 м дымка 10/10 360 м
[St]
+16.0 +14.2 89 +15 +15 1013.3 1010.5 +15.7
15 20.09 Ю 5 8000 м дымка 10/10 540 м
[St]
+17.4 +14.5 83 +17 +17 1014.2 1011.4
18 20.09 Ю 5 10 км ясно +19.8 +14.2 70 +22 +32 комфорт 1012.4 1009.6
21 20.09 Ю 5 10 км ясно +19.0 +14.4 75 +20 +23 1011.7 1010.2
00 21.09 ЮВ 4 10 км 5/0
[Ac trans]
+16.9 +14.4 85 +17 +17 1012.0 1009.2 +20.3
03 21.09 ЮВ 3 9000 м дымка 8/0
[Ac trans]
+16.5 +14.5 88 +16 +16 1013.3 1010.5
06 21.09 ЮВ 2 8000 м дымка 6/0
[Ac trans]
+15.9 +14.3 90 +16 +16 1012.8 1010.0
09 21.09 ЮВ 2 6000 м дымка 4/0
[Ac trans]
+15.5 +14.4 93 +15 +15 1011.2 1008.4
12 21.09 ЮВ 2 8000 м дымка 10/8 180 м
[St]
+15.5 +14.4 93 +15 +15 1012.9 1010.1 +15.1
15 21.09 Ю 4 10 км ясно +18.6 +14.6 78 +19 +29 1014.5 1011.7
18 21.09 Ю 4 10 км ясно +19.3 +14.6 74 +21 +35 комфорт 1013.0 1010.2
00 22.09 ЮВ 4 8000 м дымка 3/0
[Ac trans]
+17.2 +15.2 88 +17 +17 1012.7 1009.9 +20.0
03 22.09 ЮВ 4 7000 м дымка 8/8 570 м
[St]
+16.8 +15.2 90 +16 +16 1014.3 1011.5
06 22.09 ЮВ 2 8000 м дымка 1/1 450 м
[St]
+16.3 +14.5 89 +17 +17 1013.9 1011.1
09 22.09 ЮВ 2 6000 м дымка 8/0
[Ac trans]
+16.2 +14.6 90 +16 +16 1012.6 1009.8
12 22.09 ЮВ 2 5000 м дымка 1/1 210 м
[St]
+15.8 +14.8 94 +16 +16 1013.9 1011.1 +15.4
15 22.09 Ю 4 9000 м дымка 3/3 180 м
[St]
+18.3 +14.8 80 +19 +25 1014.3 1011.5
18 22.09 Ю 6 8000 м мгла 3/3 210 м
[St]
+19.6 +15.1 75 +21 +27 комфорт 1012.7 1009.9
21 22.09 Ю 6 8000 м дымка 3/3 240 м
[St]
+18.5 +15.2 81 +19 +21 1010.3 1007.5
00 23.09 ЮВ 4 8000 м дымка 8/0
[Ac trans]
+17.0 +15.2 89 +17 +17 1011.3 1008.5 +20.0
03 23.09 ЮВ 4 6000 м дымка 10/10 240 м
[St]
+16.7 +15.1 90 +16 +16 1013.0 1010.2
06 23.09 Ю 3 6000 м дымка 10/10 450 м
[St]
+16.5 +15.0 91 +16 +16 1012.4 1009.6
09 23.09 ЮВ 4 5000 м дымка 10/10 270 м
[St Ac trans]
+15.9 +14.8 93 +15 +15 1011.0 1008.2
12 23.09 ЮВ 3 5000 м дымка 10/10 240 м
[St]
+16.2 +14.9 92 +16 +16 1012.1 1009.3 +15.8
15 23.09 Ю 4 6000 м дымка 10/10 270 м
[St]
+17.2 +14.9 86 +17 +17 1014.2 1011.4
18 23.09 Ю 5 10 км 10/10 400 м
[St]
+18.4 +15.2 82 +19 +19 1012.1 1009.3
21 23.09 Ю 5 10 км 1/1 600 м
[St]
+18.9 +15.4 80 +20 +24 1010.0 1007.2
00 24.09 ЮВ 5 8000 м дымка 8/8 300 м
[St]
+17.0 +15.0 88 +16 +16 1011.3 1008.5 +20.4
03 24.09 ЮВ 5 7000 м дымка 10/10 360 м
[St]
+16.7 +14.9 89 +16 +16 1013.4 1010.6
06 24.09 ЮВ 4 7000 м дымка 10/10 420 м
[St]
+16.4 +14.7 90 +16 +16 1013.0 1010.2

 

Местоположение метеостанции Trujillo (Перу): широта -8.08 долгота -79.10 высота над уровнем моря 30 м.

В архиве по умолчанию представлена погода в Trujillo за последнюю неделю. Архивные данные за месяц целиком и за предыдущие месяцы, начиная с января 2011 года, Вы можете получить, выбрав интересующий диапазон дат из раскрывающегося списка и нажав кнопку "Ввод!".


*Определитесь, кто Вы:
робот инопланетянин человек

Внимание! Время в таблицах - всемирное. Для получения местного времени необходимо прибавить поправку, которая в Trujillo равна -5 ч.

Смотрите также архив погоды в соседних городах и на ближайших метеорологических станциях:

Погода в Cajamarca (Перу) (127 км)
Погода в Chimbote (Перу) (134 км)
Погода в Chiclayo (Перу) (164 км)
Погода в Anta (Перу) (217 км)
Погода в Chachapoyas (Перу) (251 км)
Погода в Juanjui (Перу) (282 км)
Погода в Tarapoto (Перу) (350 км)
Погода в Piura (Перу) (361 км)
Погода в Tingo Maria (Перу) (366 км)
Погода в Huanuco (Перу) (376 км)

Пояснения к столбцам:

Ветер - указаны скорость ветра в м/с - средняя за 10 мин, порывы в срок и между сроками (в фигурных скобках) и направление, откуда дует ветер: С - северный, СВ - северо-восточный, В - восточный, ЮВ - юго-восточный, Ю - южный, ЮЗ - юго-западный, З - западный, СЗ - северо-западный.
Видимость - горизонтальная дальность видимости в метрах или километрах. При видимости от 1 до 10 км при отсутствии осадков обычно наблюдается дымка, при ухудшении видимости до 1 км и менее - туман. В сухую погоду видимость может ухудшаться дымом, пылью или мглою.
Явления - указаны атмосферные явления, наблюдавшиеся в срок или в последний час перед сроком; фигурными скобками обозначены явления, наблюдавшиеся между сроками (за 1-3 часа до срока); квадратными скобками обозначены град или гололедные отложения с указанием их диаметра в мм.
Облачность - указаны через наклонную черту общая и нижняя облачность в баллах и высота нижней границы облаков в метрах; квадратными скобками обозначены формы облаков: Ci - перистые, Cs - перисто-слоистые, Cc - перисто-кучевые, Ac - высококучевые, As - высокослоистые, Sc - слоисто-кучевые, Ns - слоисто-дождевые, Cu - кучевые, Cb - кучево-дождевые. Подробнее классификацию облаков см. в Атласе облаков (PDF).
T - Температура воздуха - температура, измеренная на высоте 2 м над землей.
Td - Температура точки росы - температура, при понижении до которой содержащийся в воздухе водяной пар достигнет насыщения.
f - Относительная влажность воздуха - влажноcть воздуха, измеренная на высоте 2 м над землей.
Te - Эффективная температура - температура, которую ощущает одетый по сезону человек в тени. Характеристика душности погоды. При расчете учитывается влияние влажности воздуха и скорости ветра на теплоощущения человека.
Tes - Эффективная температура на солнце - температура, которую ощущает человек, с поправкой на солнечный нагрев. Характеристика знойности погоды. Зависит от высоты солнца над горизонтом, облачности и скорости ветра. Ночью, в пасмурную погоду, а также при ветре 12 м/с и более поправка равна нулю.
P - Атмосферное давление - приведенное к уровню моря атмосферное давление.
Po - Атмосферное давление - измеренное на уровне метеостанции атмосферное давление.
Tmin - Минимальная температура - минимум температуры воздуха на высоте 2 м над землей.
Tmax - Максимальная температура - максимум температуры воздуха на высоте 2 м над землей.
R - Количество осадков - Количество выпавших осадков за период времени, мм. При наведении курсора мыши на число - период времени, за который выпало указанное количество осадков.
R24 - Количество осадков - Количество выпавших осадков за 24 часа, мм.
S - Снежный покров - Высота снежного покрова, см. При наведении курсора мыши на число - состояние снежного покрова и степень покрытия местности в баллах.